Vertical_Velocity
-1 -2 -2 -0 -1 -1 -0 -0 -1 0 -1 2 -3 1 -2 -1 -1 2 -5 -2 -5 -1 -1 -2 -0 -2 -0 -3 -0 0 -6 -0 -1 -0 -5 0 -2 -2 -2 3 1 -9 -6 2 7
-1 -1 -1 -2 -1 -1 -1 0 -1 -2 1 -1 -1 0 -1 0 -1 -1 0 0 -1 -1 1 -2 -2 -1 -3 -2 -2 -7 -3 -2 -1 -0 -0 -1 1 -1 -3 -0 -2 -6 1 -1 5
-1 -1 -1 -2 -2 2 -2 -2 1 -1 -0 1 -0 -2 1 -1 -2 -2 -0 -1 -1 -2 -2 -1 0 -2 -3 -0 -1 0 -2 1 -0 1 2 0 -2 1 1 -3 -2 -3 -3 -1 -7
-0 1 -0 -1 -1 -0 -2 0 -1 -1 1 -0 -0 -1 -1 -1 -1 -3 -2 -1 0 -0 -1 -3 -4 -4 -2 -1 0 -3 -0 0 -3 -2 -0 -1 1 -3 4 -24 3 3 0 -4 -4
-2 1 0 0 -1 0 -2 1 0 1 -4 2 -2 -1 -0 -1 -1 0 -1 0 -1 -3 -7 -5 -6 -0 -1 0 -2 -0 -1 -1 -0 -2 -2 5 -5 -5 -9 -3 -1 -1 -2 -3 -1
-5 -2 1 2 -2 1 -1 -0 -0 -1 -1 1 -1 -1 -1 0 -0 0 -1 -1 -2 -3 -3 -2 -2 -1 -1 -0 -1 0 0 -4 -2 -2 -0 2 -4 3 -14 1 -4 1 -6 -1 0
-0 -3 -3 -1 -1 -0 -1 -1 0 -0 -1 -1 0 -2 0 -2 -1 -0 -1 -2 -1 -2 -2 -1 -1 -1 -0 -1 0 1 -1 -3 0 1 -2 1 -3 -2 -6 6 -3 -4 -3 -3 -4
-1 -1 -3 -1 -1 -1 1 -1 -1 -1 -1 -1 -1 -2 -1 -2 -0 -1 -1 -2 -0 -1 -1 -0 -0 -1 -1 1 -1 -1 -3 -3 -5 -1 -1 -2 -9 -7 -0 7 -5 -4 -6 -0 -7
-0 1 0 -2 -2 -1 -1 -0 -0 -1 -2 1 -0 0 -0 0 -0 -2 -2 -0 -0 -1 -1 -1 -2 -1 -2 -2 -5 -4 -2 -0 -10 1 -1 -2 -7 -15 -2 4 -4 -3 -3 -3 -7
-0 -1 -1 0 -2 -2 -2 -2 1 -0 0 -1 -1 1 -1 -1 -1 -1 0 -1 -1 -1 -1 -1 -2 -2 -2 -4 -5 -2 -1 -1 -1 -8 -2 -3 -7 -8 -4 5 -2 -5 -4 -2 0
-4 -2 -1 -0 -1 -1 -1 -2 -1 -2 -2 1 -0 1 -0 -0 -1 -0 0 0 -0 -1 -1 0 -7 -2 -2 -1 -2 -0 1 1 -5 -7 7 -1 -1 -7 -8 -0 -1 -3 -3 -3 -2
-1 -4 -1 -1 1 -1 -2 -3 -1 0 -9 1 -0 -0 2 -1 -0 0 -0 -1 -2 -1 -0 -7 -2 -3 -0 0 1 0 1 -4 -6 -1 7 -3 -9 -4 -1 -4 1 -0 -4 1 2
-3 -3 -4 -1 1 -2 -0 -2 -1 1 2 -2 1 0 -1 1 1 -1 0 0 -1 0 -0 -3 -5 0 1 0 1 -1 -1 -1 -0 -2 -2 0 -5 -3 -8 0 -4 1 5 1 -1
0 -1 -4 -3 0 1 -1 -0 1 1 -7 -14 0 0 0 0 0 1 2 1 -0 -1 0 -2 -3 0 0 -0 -3 -0 -1 1 1 -2 -4 -7 -9 -4 -2 -4 -0 -1 1 2 0
1 3 -3 -1 -4 1 1 0 1 2 -10 -18 1 1 0 -0 -1 0 -0 -2 -0 -0 -8 -13 0 0 1 -5 -2 -11 0 1 1 0 -2 -2 1 -19 1 -4 -3 -1 -2 -4 -2
-1 2 2 -1 -4 -2 2 -0 1 -23 -20 -5 0 -0 0 1 1 1 -1 -1 1 1 0 -4 -0 1 -5 -1 -0 -1 -1 -2 -1 -2 -1 -3 -5 -13 -2 -4 -2 -1 -1 -2 -9
-2 4 -2 -1 -3 -4 -1 3 -16 -9 -14 -5 -2 0 -0 0 1 1 -0 0 -3 -6 -2 -4 -1 -1 -1 0 -1 -4 -5 -6 -12 -9 -8 -0 -3 -17 -3 -2 -1 -1 -6 -6 -4
1 -4 -0 1 1 1 -1 -8 -2 -7 -2 -2 -0 1 0 -2 -1 1 0 -1 1 -0 -1 -2 -19 -1 -1 -3 -3 -0 -5 -7 -3 -2 -6 -2 -4 -25 -4 -1 -2 -2 -0 8 -7
-2 -2 1 -1 2 1 0 -0 -10 -2 0 -0 0 1 -1 0 -1 -1 -0 -1 -2 -3 -6 -1 -6 -1 0 -1 -8 -1 -2 -6 -2 -1 2 -4 -10 -12 -2 0 -1 -2 -5 -7 -4
-0 -2 -13 -0 10 3 2 -5 -2 0 -1 -3 0 -1 -0 -0 -1 0 -0 -5 -1 -2 -0 -3 -4 -2 -3 0 -0 -5 -6 -8 -4 -3 -2 -5 -2 -12 -5 -3 -2 -2 -3 -3 2
-2 -1 1 7 3 -0 -0 -3 -1 -2 0 2 -0 -0 -0 0 -0 -0 -3 -6 -0 1 1 -1 -5 -11 -1 -2 -4 -1 0 -1 -4 -4 -3 -0 -13 -6 -2 1 0 -2 -0 -1 -3
2 -1 -1 12 4 -0 -0 -2 -0 -2 -1 -2 1 0 -0 -0 0 1 -2 -3 0 -2 -1 -4 -3 -1 -10 -6 -1 -2 -3 -3 -5 -7 -2 1 -39 -2 -1 0 1 -1 -1 -5 3
-0 -1 0 0 1 -1 -2 -0 1 1 -2 -1 0 -0 -0 0 -2 0 -0 -1 2 -1 -3 -4 -3 -3 -16 -12 -4 -0 0 -1 -1 -1 -5 9 -28 -1 -1 -3 -4 -1 -3 -4 4
-0 -1 -1 5 5 -1 -0 -0 -0 -2 -2 3 -0 3 1 1 -0 -2 -1 -2 -0 -1 2 3 -0 -5 -5 -11 -1 1 -1 -1 3 4 -9 -12 -18 -18 -9 -0 -3 -4 -4 1 -1
0 1 3 1 -2 0 1 -0 0 -1 -2 -1 -2 1 1 1 0 -1 -1 -3 -4 -0 -0 0 0 1 -2 -1 2 1 1 -2 5 -11 8 -28 2 -12 -2 0 -2 -2 2 -5 -6
0 -1 -5 -1 -3 1 -0 -1 -0 -4 2 -1 0 -2 1 1 -0 -0 2 0 0 -4 -1 -2 -2 0 -2 -1 2 1 -2 1 -0 -4 2 3 -13 0 -5 -0 0 -1 -1 -1 -2
3 -2 -2 -2 1 1 -2 -1 -1 0 -4 -2 2 3 2 -6 2 -1 -6 -2 -2 2 -0 2 -0 1 -8 0 -0 -2 -6 -1 -1 -0 -3 -0 -13 0 -3 -1 -1 -1 -1 0 -3
Height
1559 1558 1556 1555 1553 1551 1549 1548 1545 1543 1541 1539 1538 1536 1534 1533 1532 1531 1528 1529 1526 1524 1522 1520 1518 1516 1515 1515 1516 1517 1527 1533 1527 1527 1524 1521 1520 1517 1515 1512 1512 1511 1509 1508 1508
1559 1558 1556 1554 1552 1551 1549 1547 1545 1543 1542 1540 1538 1536 1534 1533 1532 1532 1531 1529 1527 1524 1522 1519 1518 1516 1515 1518 1518 1519 1530 1525 1523 1523 1523 1521 1520 1518 1514 1508 1506 1505 1505 1504 1503
1560 1559 1556 1554 1552 1550 1548 1546 1545 1543 1542 1539 1537 1536 1534 1533 1534 1533 1531 1529 1527 1525 1523 1521 1519 1518 1518 1520 1523 1523 1526 1525 1522 1522 1521 1519 1515 1515 1512 1505 1500 1500 1498 1499 1498
1559 1558 1556 1555 1553 1550 1548 1546 1544 1542 1540 1539 1537 1535 1534 1533 1536 1532 1531 1530 1528 1526 1524 1522 1520 1521 1523 1525 1525 1526 1523 1524 1522 1520 1520 1518 1515 1511 1508 1499 1498 1497 1497 1494 1492
1558 1557 1555 1554 1552 1549 1547 1545 1543 1541 1540 1538 1537 1535 1534 1534 1534 1532 1532 1530 1528 1526 1524 1523 1522 1524 1526 1526 1525 1525 1524 1522 1519 1517 1517 1516 1512 1511 1499 1496 1495 1494 1492 1490 1488
1559 1556 1554 1553 1551 1549 1546 1544 1542 1540 1539 1537 1535 1535 1534 1535 1533 1532 1532 1531 1529 1527 1526 1525 1525 1526 1527 1526 1526 1525 1523 1519 1515 1513 1514 1513 1507 1509 1491 1492 1492 1491 1488 1485 1483
1559 1558 1555 1552 1550 1547 1545 1542 1541 1539 1537 1535 1533 1533 1533 1534 1532 1532 1532 1531 1529 1528 1527 1526 1526 1527 1527 1526 1525 1524 1523 1516 1512 1512 1511 1508 1507 1501 1490 1489 1487 1484 1480 1477 1475
1558 1556 1555 1552 1549 1546 1544 1541 1539 1537 1535 1534 1532 1533 1532 1532 1532 1532 1532 1531 1530 1529 1528 1527 1526 1527 1526 1526 1525 1524 1524 1527 1510 1510 1509 1509 1504 1493 1486 1486 1480 1476 1471 1468 1465
1558 1556 1553 1551 1549 1546 1542 1539 1537 1535 1534 1533 1533 1532 1532 1531 1531 1531 1531 1531 1529 1529 1529 1528 1527 1528 1528 1529 1538 1534 1540 1531 1521 1509 1510 1509 1503 1485 1482 1480 1474 1469 1465 1462 1458
1558 1555 1553 1550 1548 1545 1541 1538 1535 1534 1534 1533 1532 1534 1532 1532 1531 1531 1530 1530 1529 1529 1530 1529 1528 1530 1532 1536 1554 1538 1538 1531 1527 1511 1507 1503 1501 1478 1475 1476 1469 1464 1459 1456 1454
1556 1554 1552 1550 1547 1544 1541 1538 1540 1537 1533 1532 1532 1532 1532 1531 1530 1530 1529 1529 1529 1529 1531 1530 1536 1538 1529 1529 1528 1530 1533 1532 1519 1511 1508 1500 1496 1478 1470 1466 1463 1458 1455 1451 1450
1553 1552 1551 1549 1546 1544 1542 1540 1541 1542 1534 1530 1529 1530 1530 1530 1530 1529 1529 1530 1529 1531 1530 1535 1537 1525 1525 1526 1528 1529 1532 1531 1515 1509 1508 1494 1490 1474 1468 1463 1460 1456 1452 1448 1447
1549 1550 1549 1548 1546 1545 1543 1543 1542 1540 1537 1529 1528 1528 1529 1530 1529 1528 1529 1529 1529 1531 1530 1534 1525 1524 1524 1525 1528 1528 1529 1524 1518 1508 1504 1498 1489 1474 1463 1460 1457 1452 1449 1445 1447
1546 1546 1547 1547 1548 1544 1544 1543 1541 1540 1550 1533 1526 1527 1528 1527 1529 1529 1529 1530 1529 1530 1529 1530 1522 1521 1522 1525 1526 1537 1517 1517 1516 1520 1530 1505 1506 1480 1467 1461 1455 1451 1449 1449 1449
1542 1543 1544 1545 1546 1545 1545 1542 1541 1541 1574 1530 1527 1527 1526 1528 1528 1528 1529 1530 1530 1529 1532 1524 1521 1523 1524 1520 1520 1520 1514 1515 1513 1526 1528 1511 1512 1480 1468 1459 1453 1450 1449 1448 1447
1539 1539 1541 1543 1543 1544 1543 1541 1542 1556 1560 1531 1525 1526 1527 1527 1527 1527 1529 1530 1530 1530 1528 1526 1521 1521 1519 1516 1516 1514 1514 1514 1524 1533 1524 1507 1512 1479 1467 1454 1450 1448 1447 1445 1443
1534 1535 1537 1539 1541 1542 1542 1542 1556 1568 1527 1527 1524 1525 1524 1525 1526 1527 1528 1529 1531 1535 1531 1526 1520 1516 1516 1518 1515 1516 1526 1550 1544 1549 1519 1499 1507 1470 1454 1450 1448 1447 1443 1439 1435
1530 1531 1533 1536 1538 1540 1542 1544 1556 1535 1527 1518 1520 1523 1524 1521 1523 1526 1527 1528 1524 1526 1539 1545 1537 1515 1513 1514 1515 1516 1523 1551 1556 1547 1507 1496 1500 1464 1444 1443 1442 1441 1437 1434 1429
1527 1526 1530 1532 1536 1538 1542 1545 1544 1533 1523 1521 1520 1522 1524 1521 1520 1523 1527 1525 1518 1521 1530 1535 1528 1511 1512 1511 1513 1518 1528 1518 1533 1523 1521 1501 1480 1453 1439 1440 1439 1437 1434 1430 1423
1524 1524 1529 1531 1532 1535 1540 1531 1531 1524 1522 1522 1524 1521 1522 1521 1522 1524 1522 1515 1513 1514 1515 1519 1528 1513 1509 1509 1509 1512 1514 1528 1535 1545 1530 1504 1488 1467 1446 1439 1439 1435 1430 1424 1415
1523 1525 1526 1528 1530 1534 1532 1527 1525 1523 1525 1524 1522 1522 1524 1524 1522 1522 1518 1512 1511 1512 1514 1517 1523 1519 1510 1510 1510 1515 1515 1519 1526 1530 1536 1510 1468 1449 1441 1435 1436 1432 1426 1420 1412
1522 1526 1524 1525 1528 1528 1527 1527 1526 1524 1525 1523 1522 1521 1522 1522 1522 1523 1520 1514 1510 1510 1515 1513 1519 1528 1514 1500 1503 1505 1508 1512 1533 1522 1519 1506 1452 1437 1434 1434 1433 1428 1421 1417 1410
1521 1524 1524 1526 1522 1526 1526 1526 1525 1528 1526 1524 1521 1520 1518 1521 1521 1519 1515 1511 1507 1509 1513 1512 1520 1530 1515 1507 1501 1503 1503 1506 1510 1515 1496 1502 1451 1428 1430 1433 1430 1425 1421 1415 1408
1522 1523 1524 1523 1522 1525 1527 1525 1525 1526 1525 1523 1522 1520 1519 1520 1517 1515 1514 1511 1510 1512 1512 1512 1516 1516 1521 1513 1509 1509 1504 1502 1507 1507 1487 1475 1448 1431 1430 1433 1427 1423 1419 1412 1407
1520 1520 1520 1520 1523 1523 1526 1526 1525 1526 1527 1524 1521 1520 1519 1522 1518 1513 1513 1515 1511 1510 1510 1511 1513 1514 1510 1508 1505 1499 1496 1491 1495 1483 1492 1451 1456 1433 1430 1432 1424 1421 1416 1410 1406
1522 1521 1520 1521 1522 1525 1524 1520 1521 1523 1526 1522 1526 1523 1524 1522 1517 1518 1519 1518 1517 1513 1515 1511 1511 1511 1509 1505 1501 1494 1489 1475 1473 1468 1467 1457 1446 1432 1432 1427 1423 1418 1413 1409 1405
1519 1520 1521 1521 1522 1523 1520 1521 1522 1523 1522 1521 1522 1522 1520 1517 1516 1516 1518 1517 1518 1516 1515 1514 1514 1514 1498 1501 1502 1485 1465 1464 1462 1459 1455 1452 1429 1431 1427 1424 1419 1414 1413 1409 1405